Regional Weather Roundup
Issued by NWS

Home | Current Version | Previous Version | Graphics & Text | Print | Product List | Glossary On
Versions: 1 2 3 4 5 6 7 8 9 10 11 12 13 14 15 16 17 18 19 20 21 22 23 24 25 26 27 28 29 30 31 32 33 34 35 36 37 38 39 40 41 42 43 44 45 46 47 48 49 50
897
ASUS43 KLMK 091410
RWRKY
KENTUCKY REGIONAL WEATHER ROUNDUP
NATIONAL WEATHER SERVICE LOUISVILLE KY
900 AM EST FRI DEC 09 2016

NOTE "FAIR" INDICATES FEW OR NO CLOUDS BELOW 12,000 FEET
WITH NO SIGNIFICANT WEATHER AND/OR OBSTRUCTIONS TO VISIBILITY.

KYZ001>023-026-027-061>063-070>075-091500-
WESTERN AND SOUTH CENTRAL KENTUCKY

CITY           SKY/WX    TMP DP  RH WIND       PRES   REMARKS
PADUCAH        CLEAR     22  14  71 N6        30.62S WCI  14
HENDERSON      CLOUDY    23  12  63 NW7       30.63R WCI  15
OWENSBORO      PTSUNNY   22  16  78 NW7       30.63R WCI  13
HOPKINSVILLE   CLOUDY    24  17  74 NW3       30.60R
BOWLING GREEN  CLOUDY    25  13  60 CALM      30.61R
GLASGOW        CLOUDY    24  15  68 NW5       30.58S WCI  18
$$

KYZ024-025-028>034-038-045-046-053-091500-
NORTH CENTRAL KENTUCKY

CITY           SKY/WX    TMP DP  RH WIND       PRES   REMARKS
LOUISVILLE/SDF FLURRIES  24  11  57 NW8       30.58R WCI  15
LOUISVILLE/LOU CLOUDY    23  12  62 NW9       30.59R WCI  13
FORT KNOX      CLOUDY    23  13  67 W5        30.55R WCI  17
$$

KYZ035>037-039>044-047>052-055>060-089>105-091500-
NORTHEAST KENTUCKY

CITY           SKY/WX    TMP DP  RH WIND       PRES   REMARKS
LEXINGTON      CLOUDY    21  12  68 W8        30.54R WCI  11
COVINGTON      FLURRIES  21  13  71 W12       30.52R WCI   9
FRANKFORT      CLOUDY    22  10  60 NW9       30.55R WCI  12
$$

KYZ054-064>069-076>088-106>120-091500-
SOUTHEAST KENTUCKY

CITY           SKY/WX    TMP DP  RH WIND       PRES   REMARKS
JACKSON        CLOUDY    21  11  65 NW7       30.50R WCI  12
LONDON         CLOUDY    22  10  60 NW8       30.52R WCI  12
SOMERSET       CLOUDY    23  12  63 NW6       30.57R WCI  16
MIDDLESBORO    FLURRIES  24  14  66 N5        30.52S WCI  18
MONTICELLO     FLURRIES  24  15  68 N14       30.58R WCI  12
$$





USA.gov is the U.S. government's official web portal to all federal, state and local government web resources and services.